Location: Unspecified
(0.0000°N, 0.0000°E)
Time: 06:22:40
(UTC+02:00)

Cosmos 2369 Rocket - Visible Passes

Search period start: 24 July 2014 00:00
Search period end: 03 August 2014 00:00
Orbit: 829 x 853 km, 71.0° (Epoch: 23 July)

Date Brightness Start Highest point End Pass type
(mag) Time Alt. Az. Time Alt. Az. Time Alt. Az.
24 Jul 4.3 06:23:14 10° SSE 06:27:40 23° ESE 06:32:04 10° NE visible
25 Jul 4.4 06:08:10 10° SSE 06:12:26 22° ESE 06:16:39 10° ENE visible
26 Jul 4.5 05:53:08 10° SSE 05:57:11 20° ESE 06:01:13 10° ENE visible
26 Jul 3.1 07:36:07 10° SW 07:40:56 28° WNW 07:45:44 10° NNW visible
27 Jul 4.5 05:38:59 13° SE 05:41:57 18° ESE 05:45:46 10° ENE visible
27 Jul 3.0 07:20:52 11° SW 07:25:42 31° WNW 07:30:37 10° NNW visible
28 Jul 4.5 05:25:14 16° SE 05:26:43 17° ESE 05:30:17 10° ENE visible
28 Jul 2.9 07:07:06 18° SW 07:10:28 33° WNW 07:15:30 10° NNW visible
29 Jul 4.6 05:11:26 16° ESE 05:11:29 16° ESE 05:14:46 10° ENE visible
29 Jul 2.8 06:53:18 28° WSW 06:55:14 36° WNW 07:00:22 10° N visible
30 Jul 4.8 04:57:33 13° E 04:57:33 13° E 04:59:13 10° ENE visible
30 Jul 2.7 06:39:25 37° W 06:40:00 38° WNW 06:45:14 10° N visible
31 Jul 2.7 06:25:29 40° NW 06:25:29 40° NW 06:30:05 10° N visible
01 Aug 3.2 06:11:29 33° NNW 06:11:29 33° NNW 06:14:55 10° N visible
02 Aug 3.7 05:57:24 24° NNW 05:57:24 24° NNW 05:59:45 10° N visible
